Orbital Elements
The following orbital elements are taken from MPO224723
Epoch 2012 Sept. 30.0 TT = JDT 2456200.5 MPC
M 21.23847 (2000.0) P Q
n 0.06210031 Peri. 193.95265 +0.68687588 -0.71893298
a 6.3154876 Node 212.86422 +0.68420761 +0.68907054
e 0.5378740 Incl. 11.31558 +0.24507440 +0.09119850
P 15.9 H 15.7 G 0.15 U 2
From 66 observations 2011 Sept. 2-2012 Feb. 15, mean residual 0".42.
|